Location: Penton Mewsey
(51.2167°N, 1.5167°W)
Time: 09:28:26
(UTC+00:00)

STARLINK-1144 - Pass Details

Date: 30 March 2020
Orbit: 549 x 550 km, 53.0° (Epoch: 25 May)

Event Time Altitude Azimuth Distance (km) Brightness Sun altitude
Rises 20:18:51 0° 290° (WNW) 2,725 8.9 -16.0°
Reaches altitude 10° 20:21:07 10° 285° (WNW) 1,828 7.5 -16.3°
Maximum altitude 20:25:09 52° 209° (SSW) 691 4.0 -16.8°
Enters shadow 20:26:44 32° 151° (SSE) 956 4.4 -17.1°
